QPF
0.01 0.02 0.01 0.00 0.00 0.00 0.00 0.00 0.00 0.00 0.00 0.00 0.00 0.00 0.01 0.01 0.01 0.01 0.02 0.04 0.02 0.02 0.03 0.03 0.02 0.01 0.00 0.00 0.00 0.00 0.00 0.00 0.00
0.01 0.01 0.01 0.00 0.00 0.00 0.00 0.00 0.00 0.00 0.00 0.00 0.00 0.00 0.01 0.02 0.01 0.00 0.01 0.01 0.01 0.00 0.00 0.00 0.00 0.00 0.00 0.00 0.00 0.00 0.00 0.00 0.00
0.02 0.01 0.01 0.00 0.00 0.00 0.00 0.00 0.00 0.00 0.00 0.01 0.01 0.01 0.01 0.02 0.01 0.00 0.00 0.01 0.01 0.01 0.00 0.00 0.00 0.00 0.00 0.00 0.00 0.00 0.00 0.00 0.00
0.02 0.01 0.00 0.00 0.00 0.00 0.01 0.02 0.01 0.01 0.00 0.01 0.01 0.01 0.00 0.01 0.00 0.00 0.00 0.00 0.01 0.00 0.00 0.00 0.00 0.00 0.00 0.00 0.00 0.01 0.00 0.01 0.01
0.01 0.00 0.00 0.00 0.00 0.00 0.02 0.01 0.01 0.01 0.01 0.01 0.01 0.00 0.00 0.00 0.00 0.00 0.00 0.00 0.00 0.00 0.00 0.00 0.00 0.00 0.00 0.00 0.00 0.01 0.00 0.00 0.00
0.00 0.00 0.00 0.00 0.00 0.01 0.02 0.00 0.00 0.00 0.00 0.01 0.00 0.00 0.00 0.00 0.00 0.00 0.01 0.01 0.00 0.00 0.00 0.00 0.00 0.00 0.00 0.00 0.00 0.00 0.00 0.00 0.00
0.00 0.00 0.01 0.01 0.01 0.01 0.01 0.00 0.00 0.00 0.00 0.00 0.00 0.00 0.00 0.00 0.00 0.00 0.01 0.01 0.01 0.01 0.00 0.00 0.00 0.00 0.00 0.00 0.00 0.00 0.00 0.00 0.00
0.00 0.01 0.00 0.01 0.01 0.01 0.01 0.00 0.00 0.00 0.00 0.00 0.00 0.00 0.00 0.00 0.00 0.00 0.01 0.01 0.00 0.00 0.00 0.00 0.00 0.01 0.00 0.00 0.00 0.00 0.00 0.00 0.00
0.00 0.01 0.00 0.00 0.01 0.01 0.00 0.00 0.00 0.00 0.00 0.00 0.00 0.00 0.00 0.00 0.00 0.00 0.01 0.01 0.01 0.01 0.01 0.01 0.00 0.00 0.00 0.00 0.00 0.00 0.00 0.00 0.00
0.00 0.00 0.00 0.01 0.01 0.00 0.00 0.00 0.00 0.00 0.00 0.00 0.00 0.00 0.00 0.00 0.00 0.00 0.00 0.00 0.01 0.00 0.01 0.01 0.00 0.00 0.00 0.00 0.00 0.00 0.00 0.00 0.00
0.00 0.00 0.00 0.00 0.00 0.00 0.00 0.00 0.00 0.00 0.00 0.00 0.00 0.00 0.00 0.00 0.00 0.00 0.00 0.00 0.01 0.01 0.01 0.00 0.00 0.00 0.00 0.00 0.00 0.00 0.00 0.00 0.00
0.00 0.00 0.00 0.00 0.00 0.00 0.00 0.00 0.00 0.00 0.00 0.00 0.00 0.00 0.00 0.00 0.00 0.00 0.00 0.00 0.00 0.01 0.00 0.00 0.00 0.00 0.00 0.00 0.00 0.00 0.00 0.00 0.00
0.00 0.00 0.00 0.00 0.00 0.00 0.00 0.00 0.00 0.00 0.00 0.00 0.00 0.00 0.00 0.00 0.00 0.00 0.00 0.00 0.00 0.01 0.01 0.00 0.00 0.00 0.00 0.00 0.00 0.00 0.00 0.00 0.00
0.00 0.00 0.00 0.00 0.00 0.00 0.00 0.00 0.00 0.00 0.00 0.00 0.00 0.00 0.00 0.00 0.00 0.00 0.00 0.00 0.00 0.00 0.00 0.00 0.00 0.00 0.00 0.00 0.00 0.00 0.00 0.00 0.00
0.00 0.00 0.00 0.00 0.00 0.00 0.00 0.00 0.00 0.00 0.00 0.00 0.00 0.00 0.00 0.00 0.00 0.00 0.00 0.00 0.01 0.00 0.00 0.00 0.00 0.00 0.00 0.00 0.00 0.00 0.00 0.00 0.00
0.00 0.00 0.00 0.00 0.00 0.00 0.00 0.00 0.00 0.00 0.00 0.00 0.00 0.00 0.00 0.00 0.00 0.00 0.00 0.00 0.00 0.00 0.00 0.00 0.00 0.00 0.00 0.00 0.00 0.00 0.00 0.00 0.00
0.00 0.00 0.00 0.00 0.00 0.00 0.00 0.00 0.00 0.00 0.00 0.00 0.00 0.00 0.00 0.00 0.00 0.00 0.00 0.00 0.00 0.00 0.00 0.00 0.00 0.00 0.00 0.00 0.00 0.00 0.00 0.00 0.00
0.00 0.00 0.00 0.00 0.00 0.00 0.00 0.00 0.00 0.00 0.00 0.00 0.00 0.00 0.00 0.00 0.00 0.00 0.00 0.00 0.00 0.00 0.00 0.00 0.00 0.00 0.00 0.00 0.00 0.00 0.00 0.00 0.00
0.00 0.00 0.00 0.00 0.00 0.00 0.00 0.00 0.00 0.00 0.00 0.00 0.00 0.00 0.00 0.00 0.00 0.00 0.00 0.00 0.00 0.00 0.00 0.00 0.00 0.00 0.00 0.00 0.00 0.00 0.00 0.00 0.00
0.00 0.00 0.00 0.00 0.00 0.00 0.00 0.00 0.00 0.00 0.00 0.00 0.00 0.00 0.00 0.00 0.00 0.00 0.00 0.00 0.00 0.00 0.00 0.00 0.00 0.00 0.00 0.00 0.00 0.00 0.00 0.00 0.00
MSLP
1017.74 1018.00 1018.29 1018.64 1018.94 1019.37 1019.66 1019.86 1020.05 1020.28 1020.45 1020.60 1020.76 1020.95 1020.96 1021.12 1021.52 1021.84 1021.94 1022.01 1022.02 1022.25 1022.52 1022.80 1022.89 1023.01 1023.25 1023.31 1023.40 1023.53 1023.84 1023.85 1023.88
1018.06 1018.39 1018.61 1018.91 1019.20 1019.53 1019.86 1020.15 1020.37 1020.57 1020.76 1020.95 1021.12 1021.19 1021.34 1021.53 1021.95 1022.36 1022.37 1022.43 1022.56 1022.70 1022.90 1023.07 1023.32 1023.54 1023.63 1023.68 1023.89 1024.12 1024.27 1024.30 1024.27
1018.35 1018.65 1018.90 1019.14 1019.39 1019.76 1020.05 1020.36 1020.64 1020.93 1021.13 1021.36 1021.36 1021.56 1021.78 1022.04 1022.40 1022.70 1022.95 1022.97 1023.15 1023.28 1023.41 1023.60 1023.71 1023.84 1023.95 1024.19 1024.46 1024.57 1024.65 1024.69 1024.92
1018.59 1018.83 1019.10 1019.29 1019.57 1019.92 1020.25 1020.55 1020.80 1021.17 1021.40 1021.64 1021.76 1022.06 1022.34 1022.53 1022.83 1023.10 1023.42 1023.51 1023.60 1023.73 1023.75 1023.95 1024.03 1024.19 1024.39 1024.71 1024.89 1025.04 1025.17 1025.30 1025.41
1018.70 1018.98 1019.27 1019.51 1019.84 1020.07 1020.50 1020.73 1021.03 1021.37 1021.54 1021.87 1022.13 1022.44 1022.65 1022.91 1023.35 1023.61 1023.69 1023.80 1023.92 1024.07 1024.17 1024.23 1024.39 1024.73 1025.02 1025.21 1025.41 1025.56 1025.58 1025.76 1025.95
1018.84 1019.15 1019.55 1019.75 1020.05 1020.34 1020.71 1021.00 1021.38 1021.75 1021.79 1022.04 1022.43 1022.62 1022.96 1023.21 1023.57 1023.87 1023.97 1024.16 1024.37 1024.48 1024.58 1024.75 1024.85 1025.21 1025.46 1025.70 1025.87 1025.94 1026.08 1026.25 1026.36
1019.05 1019.38 1019.70 1019.81 1020.23 1020.60 1020.95 1021.11 1021.71 1022.01 1022.16 1022.34 1022.54 1022.72 1023.17 1023.48 1023.79 1024.14 1024.31 1024.37 1024.62 1024.88 1025.06 1025.28 1025.44 1025.66 1025.94 1026.11 1026.20 1026.47 1026.55 1026.62 1026.77
1019.40 1019.73 1019.91 1020.16 1020.43 1020.91 1021.20 1021.36 1021.78 1022.05 1022.25 1022.28 1022.61 1022.82 1023.20 1023.57 1023.99 1024.50 1024.59 1024.73 1024.98 1025.20 1025.46 1025.64 1025.87 1026.04 1026.28 1026.33 1026.53 1026.71 1026.86 1027.01 1027.30
1019.72 1019.98 1020.15 1020.46 1020.71 1021.16 1021.36 1021.40 1021.68 1021.88 1022.11 1022.28 1022.56 1022.83 1023.29 1023.73 1024.19 1024.77 1024.85 1024.96 1025.12 1025.44 1025.75 1025.97 1026.16 1026.34 1026.49 1026.60 1026.78 1026.98 1027.22 1027.42 1027.57
1020.01 1020.32 1020.33 1020.41 1020.73 1021.24 1021.47 1021.42 1021.34 1021.69 1022.04 1022.22 1022.38 1022.56 1023.18 1023.73 1024.10 1024.91 1025.10 1025.21 1025.32 1025.55 1025.76 1026.14 1026.32 1026.49 1026.65 1026.93 1027.20 1027.45 1027.55 1027.70 1027.82
1020.16 1020.43 1020.55 1020.66 1020.81 1021.10 1021.22 1021.38 1021.43 1021.95 1022.14 1022.45 1022.57 1022.81 1023.34 1023.81 1024.13 1024.84 1025.22 1025.37 1025.53 1025.73 1025.90 1026.11 1026.40 1026.62 1026.98 1027.17 1027.49 1027.72 1027.92 1028.04 1028.15
1020.11 1020.44 1020.65 1020.61 1020.81 1021.05 1021.11 1021.22 1021.49 1021.98 1022.29 1022.73 1022.87 1022.98 1023.49 1023.84 1024.28 1024.83 1025.35 1025.51 1025.67 1025.81 1026.09 1026.44 1026.48 1026.77 1027.09 1027.53 1027.81 1028.01 1028.14 1028.27 1028.36
1019.95 1020.34 1020.75 1020.83 1020.79 1021.13 1021.36 1021.18 1021.82 1022.31 1022.74 1023.13 1023.27 1023.31 1023.32 1023.91 1024.13 1024.61 1025.18 1025.54 1025.82 1025.98 1026.02 1026.31 1026.71 1026.94 1027.21 1027.55 1027.84 1028.08 1028.28 1028.42 1028.51
1019.94 1020.36 1020.66 1020.79 1020.78 1021.00 1021.09 1021.45 1021.93 1022.51 1022.99 1023.35 1023.60 1023.60 1023.73 1023.92 1023.89 1024.48 1024.87 1025.21 1025.59 1026.05 1026.26 1026.38 1026.65 1027.04 1027.37 1027.55 1027.80 1028.06 1028.30 1028.52 1028.66
1019.76 1020.27 1020.55 1020.73 1021.06 1021.37 1021.53 1021.68 1022.00 1022.55 1023.03 1023.44 1023.92 1024.05 1024.01 1024.01 1024.20 1024.35 1024.50 1024.90 1025.34 1025.70 1026.14 1026.65 1026.79 1026.91 1027.31 1027.55 1027.79 1028.10 1028.28 1028.48 1028.70
1019.68 1020.10 1020.23 1020.53 1021.09 1021.45 1021.66 1021.89 1022.33 1022.68 1022.90 1023.83 1024.51 1024.59 1024.57 1024.57 1024.42 1024.31 1024.38 1024.76 1025.36 1025.71 1026.00 1026.33 1027.02 1027.05 1027.14 1027.45 1027.68 1027.96 1028.23 1028.45 1028.72
1019.65 1020.22 1020.52 1020.83 1021.27 1021.52 1021.64 1021.74 1022.45 1022.87 1022.98 1024.02 1024.77 1025.38 1025.30 1024.89 1024.77 1024.73 1024.46 1024.60 1024.99 1025.60 1025.88 1026.00 1026.54 1027.01 1027.29 1027.48 1027.64 1027.80 1028.02 1028.26 1028.49
1019.76 1020.22 1020.58 1020.88 1021.26 1021.55 1021.66 1021.81 1022.12 1022.87 1023.19 1023.37 1023.94 1024.79 1024.83 1024.95 1024.81 1024.73 1024.79 1024.85 1025.00 1025.15 1025.60 1025.83 1026.20 1026.61 1026.94 1027.21 1027.45 1027.65 1027.80 1027.97 1028.17
1019.85 1020.19 1020.43 1020.80 1021.17 1021.54 1021.60 1021.66 1022.09 1022.56 1023.19 1023.40 1023.21 1023.39 1023.66 1024.33 1025.14 1024.89 1024.77 1024.80 1025.00 1025.07 1025.32 1025.50 1025.82 1026.11 1026.49 1026.73 1027.05 1027.29 1027.66 1027.82 1027.97
1019.80 1020.05 1020.19 1020.45 1020.74 1021.02 1021.38 1021.60 1021.95 1022.29 1022.76 1023.01 1023.14 1023.22 1023.41 1023.57 1023.93 1024.61 1024.73 1024.80 1024.51 1024.58 1024.73 1025.02 1025.37 1025.58 1026.05 1026.40 1026.69 1026.94 1027.36 1027.53 1027.64
Thickness
5710 5709 5709 5708 5707 5704 5702 5702 5700 5699 5698 5697 5695 5694 5694 5694 5692 5690 5688 5688 5688 5687 5685 5683 5683 5683 5682 5683 5683 5682 5678 5679 5680
5706 5705 5705 5704 5703 5702 5700 5698 5697 5696 5695 5693 5692 5692 5691 5690 5687 5684 5684 5684 5683 5683 5681 5681 5680 5679 5679 5679 5678 5676 5675 5676 5676
5701 5701 5701 5701 5700 5698 5697 5695 5693 5691 5691 5689 5690 5688 5686 5685 5683 5681 5679 5679 5678 5678 5677 5676 5676 5676 5675 5674 5672 5671 5671 5671 5669
5697 5697 5698 5697 5697 5695 5693 5692 5690 5688 5687 5685 5685 5683 5681 5680 5678 5676 5675 5674 5674 5673 5674 5673 5673 5672 5671 5669 5668 5667 5666 5665 5664
5693 5693 5693 5693 5692 5692 5690 5689 5686 5685 5684 5682 5680 5679 5677 5676 5674 5672 5671 5670 5671 5670 5670 5671 5670 5668 5666 5665 5663 5662 5661 5660 5658
5690 5689 5688 5688 5688 5687 5685 5684 5682 5680 5680 5679 5677 5675 5674 5673 5671 5670 5669 5668 5667 5666 5667 5666 5666 5663 5661 5660 5658 5658 5657 5655 5654
5685 5684 5684 5684 5683 5682 5681 5681 5677 5675 5675 5675 5674 5673 5670 5669 5668 5666 5665 5665 5664 5662 5661 5660 5660 5658 5657 5655 5654 5652 5652 5650 5649
5679 5679 5679 5679 5679 5677 5677 5677 5673 5672 5672 5673 5670 5670 5667 5665 5664 5661 5661 5660 5659 5657 5656 5655 5654 5654 5652 5651 5649 5648 5646 5645 5643
5673 5673 5674 5674 5674 5672 5671 5673 5671 5670 5670 5670 5669 5667 5665 5662 5659 5656 5656 5657 5656 5654 5652 5650 5649 5647 5646 5645 5644 5643 5642 5640 5638
5666 5666 5668 5669 5669 5668 5668 5670 5670 5669 5667 5667 5667 5666 5664 5659 5657 5652 5651 5651 5652 5651 5649 5646 5644 5643 5642 5640 5638 5637 5636 5634 5633
5661 5661 5663 5664 5664 5664 5665 5666 5666 5665 5664 5662 5662 5661 5660 5655 5655 5651 5648 5647 5646 5645 5644 5644 5641 5638 5636 5635 5633 5632 5630 5628 5626
5656 5656 5658 5659 5660 5660 5661 5662 5662 5661 5659 5656 5656 5657 5655 5653 5650 5647 5644 5642 5641 5641 5638 5636 5636 5635 5632 5629 5627 5626 5625 5623 5621
5651 5652 5652 5653 5655 5655 5654 5658 5655 5654 5652 5650 5650 5651 5651 5649 5647 5644 5640 5639 5636 5635 5635 5633 5630 5629 5629 5626 5623 5621 5618 5616 5614
5645 5645 5646 5648 5650 5650 5651 5651 5649 5647 5646 5644 5644 5645 5645 5645 5644 5641 5638 5637 5635 5632 5628 5629 5627 5623 5621 5620 5618 5615 5612 5609 5606
5640 5640 5640 5641 5642 5642 5642 5644 5643 5642 5640 5639 5635 5636 5637 5637 5639 5637 5636 5633 5632 5630 5626 5622 5621 5619 5616 5614 5612 5608 5605 5602 5598
5634 5634 5635 5636 5635 5633 5634 5635 5634 5634 5634 5629 5624 5624 5626 5627 5629 5631 5631 5628 5625 5623 5621 5619 5614 5613 5612 5608 5605 5602 5597 5594 5590
5626 5625 5625 5625 5625 5625 5627 5629 5625 5624 5626 5619 5612 5608 5612 5617 5619 5621 5623 5623 5620 5617 5615 5615 5612 5607 5605 5602 5598 5595 5591 5587 5582
5617 5615 5616 5616 5616 5615 5617 5619 5620 5613 5614 5615 5611 5604 5606 5605 5611 5613 5614 5614 5613 5612 5609 5608 5607 5603 5600 5596 5592 5587 5584 5579 5575
5606 5606 5607 5607 5607 5607 5608 5610 5610 5608 5605 5605 5610 5610 5610 5604 5599 5604 5606 5606 5606 5605 5604 5601 5599 5598 5595 5590 5585 5581 5575 5570 5566
5596 5598 5600 5600 5600 5600 5600 5601 5601 5601 5599 5598 5599 5600 5600 5603 5602 5594 5594 5596 5600 5600 5599 5596 5593 5590 5587 5584 5579 5573 5567 5561 5557